DPTAW,2015-11-22,15:50:00,530301-001,0,0,356,0,0,0,0,356,0,,33.58,0,0,,0,0,0,,42.1,0,0,8.35,8.41,45
DPTAW,2015-11-22,15:40:00,530301-001,1,0,0,0,0,0,0,0,0,,33.96,0,0,,0,0,0,,45.5,0,0,13.39,10.59,360
DPTAW,2015-11-22,15:35:00,530301-001,2,0,0,0,0,0,0,0,0,,34.17,0,0,,0,0,0,,45,0,0,16.11,10.49,379
DPTAW,2015-11-22,15:30:00,530301-001,3,0,0,0,0,0,0,0,0,,34.35,0,0,,0,0,0,,45.1,0,0,16.54,10.51,397
DPTAW,2015-11-22,15:25:00,530301-001,4,0,0,0,0,0,0,0,0,,34.54,0,0,,0,0,0,,43.6,0,0,15.97,10.49,415
DPTAW,2015-11-22,15:15:00,530301-001,5,0,0,0,0,0,0,0,0,,34.62,0,0,,0,0,0,,43.6,0,0,16.54,10.59,431
DPTAW,2015-11-22,15:10:00,530301-001,6,0,0,0,0,0,0,0,0,,34.76,0,0,,0,0,0,,43.1,0,0,14.87,10.64,448
DPTAW,2015-11-22,15:05:00,530301-001,7,0,0,0,0,0,0,0,0,,34.73,0,0,,0,0,0,,42.8,0,0,16.43,10.39,464
DPTAW,2015-11-22,15:00:00,530301-001,8,0,0,0,0,0,0,0,0,,34.75,0,0,,0,0,0,,43.4,0,0,14.98,10.59,478
DPTAW,2015-11-22,14:55:00,530301-001,9,0,0,0,0,0,0,0,0,,34.86,0,0,,0,0,0,,43.9,0,0,12.9,10.88,495
DPTAW,2015-11-22,14:50:00,530301-001,10,0,0,0,0,0,0,0,0,,34.83,0,0,,0,0,0,,42.8,0,0,12,10.88,511
DPTAW,2015-11-22,14:45:00,530301-001,11,0,0,0,0,0,0,0,0,,34.97,0,0,,0,0,0,,41.2,0,0,16.19,10.39,528
DPTAW,2015-11-22,14:40:00,530301-001,12,0,0,0,0,0,0,0,0,,34.72,0,0,,0,0,0,,44.5,0,0,12.35,10.88,541
DPTAW,2015-11-22,14:35:00,530301-001,13,0,0,0,0,0,0,0,0,,34.55,0,0,,0,0,0,,44.6,0,0,15.56,10.64,557
DPTAW,2015-11-22,14:30:00,530301-001,14,0,0,0,0,0,0,0,0,,35.02,0,0,,0,0,0,,43.2,0,0,15.12,10.71,570
DPTAW,2015-11-22,14:25:00,530301-001,15,0,0,0,0,0,0,0,0,,35.37,0,0,,0,0,0,,43.3,0,0,15.97,10.49,589
DPTAW,2015-11-22,14:20:00,530301-001,16,0,0,0,0,0,0,0,0,,34.95,0,0,,0,0,0,,42.4,0,0,15.34,10.71,606
DPTAW,2015-11-22,14:15:00,530301-001,17,0,0,0,0,0,0,0,0,,35.15,0,0,,0,0,0,,42.6,0,0,15.86,10.49,616
DPTAW,2015-11-22,14:10:00,530301-001,18,0,0,0,0,0,0,0,0,,35.19,0,0,,0,0,0,,43,0,0,16.43,10.59,625
DPTAW,2015-11-22,14:05:00,530301-001,19,0,0,0,0,0,0,0,0,,35.18,0,0,,0,0,0,,45.5,0,0,14.46,10.81,635
DPTAW,2015-11-22,14:00:00,530301-001,20,0,0,0,0,0,0,0,0,,35.29,0,0,,0,0,0,,44,0,0,15.97,10.49,647
DPTAW,2015-11-22,13:55:00,530301-001,21,0,0,0,0,0,0,0,0,,34.94,0,0,,0,0,0,,42.1,0,0,14.87,10.76,660
DPTAW,2015-11-22,13:50:00,530301-001,22,0,0,0,0,0,0,0,0,,35.16,0,0,,0,0,0,,43.7,0,0,15.09,10.64,670
DPTAW,2015-11-22,13:45:00,530301-001,23,0,0,0,0,0,0,0,0,,35.07,0,0,,0,0,0,,43.5,0,0,16.24,10.29,674
DPTAW,2015-11-22,13:40:00,530301-001,24,0,0,0,0,0,0,0,0,,35.07,0,0,,0,0,0,,45.7,0,0,14.46,10.71,689
DPTAW,2015-11-22,13:35:00,530301-001,25,0,0,0,0,0,0,0,0,,35.09,0,0,,0,0,0,,45.5,0,0,16.21,10.36,703
DPTAW,2015-11-22,13:30:00,530301-001,26,0,0,0,0,0,0,0,0,,35.26,0,0,,0,0,0,,46.7,0,0,16.11,10.49,716
DPTAW,2015-11-22,13:25:00,530301-001,27,0,0,0,0,0,0,0,0,,34.95,0,0,,0,0,0,,46.9,0,0,16.16,10.49,731
DPTAW,2015-11-22,13:20:00,530301-001,28,0,0,0,0,0,0,0,0,,34.76,0,0,,0,0,0,,48.4,0,0,14.43,10.81,743
DPTAW,2015-11-22,13:15:00,530301-001,29,0,0,0,0,0,0,0,0,,34.89,0,0,,0,0,0,,45.7,0,0,12.52,10.91,740
DPTAW,2015-11-22,13:10:00,530301-001,30,0,0,0,0,0,0,0,0,,35.21,0,0,,0,0,0,,44.7,0,0,14.87,10.64,744
DPTAW,2015-11-22,13:05:00,530301-001,31,0,0,0,0,0,0,0,0,,35.05,0,0,,0,0,0,,46.3,0,0,15.97,10.49,744
DPTAW,2015-11-22,13:00:00,530301-001,32,0,0,0,0,0,0,0,0,,34.81,0,0,,0,0,0,,47.9,0,0,16.43,10.76,756
DPTAW,2015-11-22,12:55:00,530301-001,33,0,0,0,0,0,0,0,0,,34.6,0,0,,0,0,0,,47.9,0,0,12.3,10.98,761
DPTAW,2015-11-22,12:50:00,530301-001,34,0,0,0,0,0,0,0,0,,34.78,0,0,,0,0,0,,48.6,0,0,16.3,10.76,758
DPTAW,2015-11-22,12:45:00,530301-001,35,0,0,0,0,0,0,0,0,,34.77,0,0,,0,0,0,,48.9,0,0,12.08,11.11,770
DPTAW,2015-11-22,12:40:00,530301-001,36,0,0,0,0,0,0,0,0,,34.84,0,0,,0,0,0,,50.5,0,0,13.48,10.96,778
DPTAW,2015-11-22,12:35:00,530301-001,37,0,0,0,0,0,0,0,0,,34.64,0,0,,0,0,0,,50,0,0,14.02,10.88,769
DPTAW,2015-11-22,12:30:00,530301-001,38,0,0,0,0,0,0,0,0,,34.37,0,0,,0,0,0,,51.8,0,0,14.05,10.96,771
DPTAW,2015-11-22,12:25:00,530301-001,39,0,0,0,0,0,0,0,0,,34.45,0,0,,0,0,0,,49.7,0,0,16.65,10.76,776
DPTAW,2015-11-22,12:20:00,530301-001,40,0,0,0,0,0,0,0,0,,34.25,0,0,,0,0,0,,50.3,0,0,12.05,11.23,777
DPTAW,2015-11-22,12:15:00,530301-001,41,0,0,0,0,0,0,0,0,,34.03,0,0,,0,0,0,,52,0,0,14.79,10.88,783
DPTAW,2015-11-22,12:10:00,530301-001,42,0,0,0,0,0,0,0,0,,33.99,0,0,,0,0,0,,52.6,0,0,16.54,10.81,784
DPTAW,2015-11-22,12:05:00,530301-001,43,0,0,0,0,0,0,0,0,,34.11,0,0,,0,0,0,,51.6,0,0,12.22,11.4,774
DPTAW,2015-11-22,12:00:00,530301-001,44,0,0,0,0,0,0,0,0,,33.68,0,0,,0,0,0,,53.5,0,0,13.8,9.45,786
DPTAW,2015-11-22,11:55:00,530301-001,45,0,0,0,0,0,0,0,0,,33.58,0,0,,0,0,0,,51.9,0,0,13.8,9.37,793
DPTAW,2015-11-22,11:50:00,530301-001,46,0,0,0,0,0,0,0,0,,33.5,0,0,,0,0,0,,56.1,0,0,13.75,9.25,781
DPTAW,2015-11-22,11:45:00,530301-001,47,0,0,0,0,0,0,0,0,,33.42,0,0,,0,0,0,,55,0,0,13.75,9.3,780
DPTAW,2015-11-22,11:40:00,530301-001,48,0,0,0,0,0,0,0,0,,33.6,0,0,,0,0,0,,54.8,0,0,13.8,9.25,775
DPTAW,2015-11-22,11:35:00,530301-001,49,0,0,0,0,0,0,0,0,,33.46,0,0,,0,0,0,,55.1,0,0,13.8,9.25,771
DPTAW,2015-11-22,11:30:00,530301-001,50,0,0,0,0,0,0,0,0,,33.06,0,0,,0,0,0,,55.5,0,0,13.8,9.25,777
DPTAW,2015-11-22,11:25:00,530301-001,51,0,0,0,0,0,0,0,0,,33.07,0,0,,0,0,0,,54.8,0,0,13.75,9.25,768
DPTAW,2015-11-22,11:20:00,530301-001,52,0,0,0,0,0,0,0,0,,32.97,0,0,,0,0,0,,55.4,0,0,13.8,9.22,763
DPTAW,2015-11-22,11:15:00,530301-001,53,0,0,0,0,0,0,0,0,,32.75,0,0,,0,0,0,,55.8,0,0,13.78,9.22,754
DPTAW,2015-11-22,11:10:00,530301-001,54,0,0,0,0,0,0,0,0,,32.55,0,0,,0,0,0,,57,0,0,13.78,9.2,750
DPTAW,2015-11-22,11:05:00,530301-001,55,0,0,0,0,0,0,0,0,,32.51,0,0,,0,0,0,,56.6,0,0,13.8,9.22,744
DPTAW,2015-11-22,11:00:00,530301-001,56,0,0,0,0,0,0,0,0,,32.45,0,0,,0,0,0,,58.1,0,0,13.75,9.22,736
DPTAW,2015-11-22,10:55:00,530301-001,57,0,0,0,0,0,0,0,0,,32.54,0,0,,0,0,0,,57.4,0,0,13.78,9.3,731
DPTAW,2015-11-22,10:50:00,530301-001,58,0,0,0,0,0,0,0,0,,32.49,0,0,,0,0,0,,57.3,0,0,13.8,9.3,724
DPTAW,2015-11-22,10:45:00,530301-001,59,0,0,0,0,0,0,0,0,,32.4,0,0,,0,0,0,,57.1,0,0,13.8,9.22,718
DPTAW,2015-11-22,10:40:00,530301-001,60,0,0,0,0,0,0,0,0,,32.28,0,0,,0,0,0,,58.7,0,0,13.67,9.22,709
DPTAW,2015-11-22,10:35:00,530301-001,61,0,0,0,0,0,0,0,0,,32.11,0,0,,0,0,0,,59.4,0,0,13.8,9.2,699
DPTAW,2015-11-22,10:30:00,530301-001,62,0,0,0,0,0,0,0,0,,31.97,0,0,,0,0,0,,59.2,0,0,13.8,9.12,690
DPTAW,2015-11-22,10:25:00,530301-001,63,0,0,0,0,0,0,0,0,,31.78,0,0,,0,0,0,,59.6,0,0,13.8,9.17,680
DPTAW,2015-11-22,10:20:00,530301-001,64,0,0,0,0,0,0,0,0,,31.57,0,0,,0,0,0,,61,0,0,13.8,9.17,671
DPTAW,2015-11-22,10:15:00,530301-001,65,0,0,0,0,0,0,0,0,,31.47,0,0,,0,0,0,,61.3,0,0,13.75,9.12,660
DPTAW,2015-11-22,10:10:00,530301-001,66,0,0,0,0,0,0,0,0,,31.17,0,0,,0,0,0,,61.9,0,0,13.8,9.12,649
DPTAW,2015-11-22,10:05:00,530301-001,67,0,0,0,0,0,0,0,0,,30.99,0,0,,0,0,0,,62.4,0,0,13.8,9.17,640
DPTAW,2015-11-22,10:00:00,530301-001,68,0,0,0,0,0,0,0,0,,30.8,0,0,,0,0,0,,65.1,0,0,13.8,9.17,630
DPTAW,2015-11-22,09:55:00,530301-001,69,0,0,0,0,0,0,0,0,,30.64,0,0,,0,0,0,,64.1,0,0,13.8,9.17,620
DPTAW,2015-11-22,09:50:00,530301-001,70,0,0,0,0,0,0,0,0,,30.56,0,0,,0,0,0,,64.7,0,0,13.75,9.17,606
DPTAW,2015-11-22,09:45:00,530301-001,71,0,0,0,0,0,0,0,0,,30.38,0,0,,0,0,0,,66.3,0,0,13.78,9.12,593
DPTAW,2015-11-22,09:40:00,530301-001,72,0,0,0,0,0,0,0,0,,30.48,0,0,,0,0,0,,65,0,0,13.8,9.05,581
DPTAW,2015-11-22,09:35:00,530301-001,73,0,0,0,0,0,0,0,0,,30.35,0,0,,0,0,0,,66.1,0,0,13.67,9,567
DPTAW,2015-11-22,09:30:00,530301-001,74,0,0,0,0,0,0,0,0,,30.14,0,0,,0,0,0,,65.6,0,0,13.75,9,556
DPTAW,2015-11-22,09:25:00,530301-001,75,0,0,0,0,0,0,0,0,,29.83,0,0,,0,0,0,,66.4,0,0,13.75,9.2,541
DPTAW,2015-11-22,09:20:00,530301-001,76,0,0,0,0,0,0,0,0,,29.71,0,0,,0,0,0,,65.2,0,0,13.8,9.17,528
DPTAW,2015-11-22,09:15:00,530301-001,77,0,0,0,0,0,0,0,0,,29.6,0,0,,0,0,0,,67.9,0,0,13.75,9.12,514
DPTAW,2015-11-22,09:10:00,530301-001,78,0,0,0,0,0,0,0,0,,29.6,0,0,,0,0,0,,68.2,0,0,13.69,9.12,502
DPTAW,2015-11-22,09:05:00,530301-001,79,0,0,0,0,0,0,0,0,,29.17,0,0,,0,0,0,,70.7,0,0,13.75,9.12,486
DPTAW,2015-11-22,09:00:00,530301-001,80,0,0,0,0,0,0,0,0,,28.85,0,0,,0,0,0,,71.8,0,0,13.8,9.12,470
DPTAW,2015-11-22,08:55:00,530301-001,81,0,0,0,0,0,0,0,0,,28.43,0,0,,0,0,0,,72.4,0,0,13.78,9.12,456
DPTAW,2015-11-22,08:50:00,530301-001,82,0,0,0,0,0,0,0,0,,28.32,0,0,,0,0,0,,73.9,0,0,13.78,9.05,440
DPTAW,2015-11-22,08:45:00,530301-001,83,0,0,0,0,0,0,0,0,,28.12,0,0,,0,0,0,,75,0,0,13.75,9.05,426
DPTAW,2015-11-22,08:40:00,530301-001,84,0,0,0,0,0,0,0,0,,27.95,0,0,,0,0,0,,76.2,0,0,13.8,9,409
DPTAW,2015-11-22,08:35:00,530301-001,85,0,0,0,0,0,0,0,0,,27.69,0,0,,0,0,0,,77.1,0,0,13.8,9,392
DPTAW,2015-11-22,08:30:00,530301-001,86,0,0,0,0,0,0,0,0,,27.49,0,0,,0,0,0,,78.6,0,0,13.8,9,376
DPTAW,2015-11-22,08:25:00,530301-001,87,0,0,0,0,0,0,0,0,,27.25,0,0,,0,0,0,,79.5,0,0,13.8,8.98,358
DPTAW,2015-11-22,08:20:00,530301-001,88,0,0,0,0,0,0,0,0,,26.99,0,0,,0,0,0,,80.5,0,0,13.75,8.98,341
DPTAW,2015-11-22,08:15:00,530301-001,89,0,0,0,0,0,0,0,0,,26.53,0,0,,0,0,0,,80.9,0,0,13.8,8.9,324
DPTAW,2015-11-22,08:10:00,530301-001,90,0,0,0,0,0,0,0,0,,25.93,0,0,,0,0,0,,81.2,0,0,13.67,8.9,304
DPTAW,2015-11-22,08:05:00,530301-001,91,0,0,0,0,0,0,0,0,,25.44,0,0,,0,0,0,,81,0,0,13.8,8.9,288
DPTAW,2015-11-22,08:00:00,530301-001,92,0,0,0,0,0,0,0,0,,24.98,0,0,,0,0,0,,80.3,0,0,13.8,8.83,272
DPTAW,2015-11-22,07:55:00,530301-001,93,0,0,0,0,0,0,0,0,,24.45,0,0,,0,0,0,,79.4,0,0,13.8,8.83,256
DPTAW,2015-11-22,07:50:00,530301-001,94,0,0,0,0,0,0,0,0,,23.92,0,0,,0,0,0,,78.5,0,0,13.75,8.83,231
DPTAW,2015-11-22,07:45:00,530301-001,95,0,0,0,0,0,0,0,0,,23.5,0,0,,0,0,0,,77,0,0,13.67,8.8,210
DPTAW,2015-11-22,07:40:00,530301-001,96,0,0,0,0,0,0,0,0,,23.13,0,0,,0,0,0,,76.1,0,0,13.8,8.8,193
DPTAW,2015-11-22,07:35:00,530301-001,97,0,0,0,0,0,0,0,0,,22.77,0,0,,0,0,0,,75.6,0,0,13.8,8.78,174
DPTAW,2015-11-22,07:30:00,530301-001,98,0,0,0,0,0,0,0,0,,22.32,0,0,,0,0,0,,75.8,0,0,13.8,8.73,155
DPTAW,2015-11-22,07:25:00,530301-001,99,0,0,0,0,0,0,0,0,,21.88,0,0,,0,0,0,,76.1,0,0,13.8,8.73,121
DPTAW,2015-11-22,07:22:00,530301-001,100,0,30,0,0,0,0,30,0,,21.68,0,0,,0,0,0,,76.3,0,0,13.09,8.41,74
DPTAW,2015-11-21,16:30:00,530301-001,101,0,45,0,0,0,0,45,0,,33.02,0,0,,0,0,0,,51.5,0,0,8.49,8.5,66
DPTAW,2015-11-21,16:00:00,530301-001,102,0,19,0,0,0,0,19,0,,33.78,0,0,,0,0,0,,47.9,0,0,8.55,8.58,58
DPTAW,2015-11-21,15:50:00,530301-001,103,0,2,0,0,0,0,2,0,,33.9,0,0,,0,0,0,,48.3,0,0,8.41,8.5,51
DPTAW,2015-11-21,14:40:00,530301-001,104,0,0,0,0,0,0,0,0,,34.8,0,0,,0,0,0,,46.7,0,0,13.8,9.02,521
DPTAW,2015-11-21,14:35:00,530301-001,105,0,0,0,0,0,0,0,0,,34.85,0,0,,0,0,0,,45.7,0,0,13.75,9.12,536
DPTAW,2015-11-21,14:30:00,530301-001,106,0,0,0,0,0,0,0,0,,34.83,0,0,,0,0,0,,46,0,0,13.75,9.12,549
DPTAW,2015-11-21,14:25:00,530301-001,107,0,0,0,0,0,0,0,0,,34.74,0,0,,0,0,0,,45.7,0,0,13.8,9.12,563
DPTAW,2015-11-21,14:20:00,530301-001,108,0,0,0,0,0,0,0,0,,35.04,0,0,,0,0,0,,43.2,0,0,13.8,9.12,576
DPTAW,2015-11-21,14:15:00,530301-001,109,0,0,0,0,0,0,0,0,,35.14,0,0,,0,0,0,,46.2,0,0,13.75,9.22,591
DPTAW,2015-11-21,14:10:00,530301-001,110,0,0,0,0,0,0,0,0,,35.09,0,0,,0,0,0,,46,0,0,13.8,9.2,604
DPTAW,2015-11-21,14:05:00,530301-001,111,0,0,0,0,0,0,0,0,,35.23,0,0,,0,0,0,,42.6,0,0,13.8,9.17,615
DPTAW,2015-11-21,14:00:00,530301-001,112,0,0,0,0,0,0,0,0,,35.16,0,0,,0,0,0,,45.5,0,0,13.8,9.05,625
DPTAW,2015-11-21,13:55:00,530301-001,113,0,0,0,0,0,0,0,0,,34.87,0,0,,0,0,0,,46,0,0,13.8,9.17,635
DPTAW,2015-11-21,13:50:00,530301-001,114,0,0,0,0,0,0,0,0,,34.77,0,0,,0,0,0,,44.6,0,0,13.8,9.22,645
DPTAW,2015-11-21,13:45:00,530301-001,115,0,0,0,0,0,0,0,0,,34.77,0,0,,0,0,0,,43.5,0,0,13.67,9.25,656
DPTAW,2015-11-21,13:40:00,530301-001,116,0,0,0,0,0,0,0,0,,35.24,0,0,,0,0,0,,42.3,0,0,13.75,9.05,666
DPTAW,2015-11-21,13:35:00,530301-001,117,0,0,0,0,0,0,0,0,,35.02,0,0,,0,0,0,,46,0,0,13.8,9.17,675
DPTAW,2015-11-21,13:30:00,530301-001,118,0,0,0,0,0,0,0,0,,35.01,0,0,,0,0,0,,45.4,0,0,13.8,9.25,685
DPTAW,2015-11-21,13:25:00,530301-001,119,0,0,0,0,0,0,0,0,,34.78,0,0,,0,0,0,,47,0,0,13.75,9.25,693
DPTAW,2015-11-21,13:20:00,530301-001,120,0,0,0,0,0,0,0,0,,34.74,0,0,,0,0,0,,45.8,0,0,13.8,9.2,699
DPTAW,2015-11-21,13:15:00,530301-001,121,0,0,0,0,0,0,0,0,,34.93,0,0,,0,0,0,,45.7,0,0,13.8,9.22,709
DPTAW,2015-11-21,13:10:00,530301-001,122,0,0,0,0,0,0,0,0,,35.28,0,0,,0,0,0,,43.2,0,0,13.8,9.22,718
DPTAW,2015-11-21,13:05:00,530301-001,123,0,0,0,0,0,0,0,0,,35.39,0,0,,0,0,0,,44.8,0,0,13.75,9.22,728
DPTAW,2015-11-21,13:00:00,530301-001,124,0,0,0,0,0,0,0,0,,35.44,0,0,,0,0,0,,47,0,0,13.75,9.22,728
DPTAW,2015-11-21,12:55:00,530301-001,125,0,0,0,0,0,0,0,0,,34.77,0,0,,0,0,0,,49.1,0,0,13.8,9.22,735
DPTAW,2015-11-21,12:50:00,530301-001,126,0,0,0,0,0,0,0,0,,34.55,0,0,,0,0,0,,48.9,0,0,13.8,9.3,738
DPTAW,2015-11-21,12:45:00,530301-001,127,0,0,0,0,0,0,0,0,,34.63,0,0,,0,0,0,,49.5,0,0,13.69,9.3,748
DPTAW,2015-11-21,12:40:00,530301-001,128,0,0,0,0,0,0,0,0,,34.64,0,0,,0,0,0,,50,0,0,13.69,9.22,747
DPTAW,2015-11-21,12:35:00,530301-001,129,0,0,0,0,0,0,0,0,,34.93,0,0,,0,0,0,,49.1,0,0,13.75,9.22,755
DPTAW,2015-11-21,12:30:00,530301-001,130,0,0,0,0,0,0,0,0,,34.88,0,0,,0,0,0,,50.2,0,0,13.8,9.22,759
DPTAW,2015-11-21,12:25:00,530301-001,131,0,0,0,0,0,0,0,0,,34.55,0,0,,0,0,0,,51.7,0,0,13.8,9.22,757
DPTAW,2015-11-21,12:20:00,530301-001,132,0,0,0,0,0,0,0,0,,34.29,0,0,,0,0,0,,53.9,0,0,13.8,9.22,757
DPTAW,2015-11-21,12:15:00,530301-001,133,0,0,0,0,0,0,0,0,,34.25,0,0,,0,0,0,,51.7,0,0,13.75,9.25,760
DPTAW,2015-11-21,12:10:00,530301-001,134,0,0,0,0,0,0,0,0,,34.1,0,0,,0,0,0,,49.9,0,0,13.8,9.3,761
DPTAW,2015-11-21,12:05:00,530301-001,135,0,0,0,0,0,0,0,0,,34.14,0,0,,0,0,0,,51.7,0,0,13.75,9.37,764
DPTAW,2015-11-21,12:00:00,530301-001,136,0,0,0,0,0,0,0,0,,34.14,0,0,,0,0,0,,51.4,0,0,13.8,9.3,762
DPTAW,2015-11-21,11:55:00,530301-001,137,0,0,0,0,0,0,0,0,,33.89,0,0,,0,0,0,,51.4,0,0,13.75,9.3,763
DPTAW,2015-11-21,11:50:00,530301-001,138,0,0,0,0,0,0,0,0,,33.82,0,0,,0,0,0,,50.7,0,0,13.8,9.3,761
DPTAW,2015-11-21,11:45:00,530301-001,139,0,0,0,0,0,0,0,0,,33.6,0,0,,0,0,0,,52.9,0,0,13.8,9.25,760
DPTAW,2015-11-21,11:40:00,530301-001,140,0,0,0,0,0,0,0,0,,33.65,0,0,,0,0,0,,54.6,0,0,13.8,9.22,757
DPTAW,2015-11-21,11:35:00,530301-001,141,0,0,0,0,0,0,0,0,,33.51,0,0,,0,0,0,,54.4,0,0,13.8,9.37,756
DPTAW,2015-11-21,11:30:00,530301-001,142,0,0,0,0,0,0,0,0,,33.61,0,0,,0,0,0,,53.6,0,0,13.75,9.32,750
DPTAW,2015-11-21,11:25:00,530301-001,143,0,0,0,0,0,0,0,0,,33.47,0,0,,0,0,0,,54.1,0,0,13.69,9.25,753
DPTAW,2015-11-21,11:20:00,530301-001,144,0,0,0,0,0,0,0,0,,33.16,0,0,,0,0,0,,54.1,0,0,13.78,9.3,749
DPTAW,2015-11-21,11:15:00,530301-001,145,0,0,0,0,0,0,0,0,,33.17,0,0,,0,0,0,,56.8,0,0,13.8,9.25,747
DPTAW,2015-11-21,11:10:00,530301-001,146,0,0,0,0,0,0,0,0,,33,0,0,,0,0,0,,57.6,0,0,13.75,9.25,741
DPTAW,2015-11-21,11:05:00,530301-001,147,0,0,0,0,0,0,0,0,,32.92,0,0,,0,0,0,,57.7,0,0,13.8,9.22,734
DPTAW,2015-11-21,11:00:00,530301-001,148,0,0,0,0,0,0,0,0,,32.73,0,0,,0,0,0,,57.7,0,0,13.8,9.3,729
DPTAW,2015-11-21,10:55:00,530301-001,149,0,0,0,0,0,0,0,0,,32.74,0,0,,0,0,0,,58.7,0,0,13.75,9.22,718
DPTAW,2015-11-21,10:50:00,530301-001,150,0,0,0,0,0,0,0,0,,32.58,0,0,,0,0,0,,58.2,0,0,13.8,9.25,712
DPTAW,2015-11-21,10:45:00,530301-001,151,0,0,0,0,0,0,0,0,,32.58,0,0,,0,0,0,,57.4,0,0,13.75,9.22,704
DPTAW,2015-11-21,10:40:00,530301-001,152,0,0,0,0,0,0,0,0,,32.42,0,0,,0,0,0,,58.8,0,0,13.78,9.22,697
DPTAW,2015-11-21,10:35:00,530301-001,153,0,0,0,0,0,0,0,0,,32.02,0,0,,0,0,0,,58.4,0,0,13.78,9.22,688
DPTAW,2015-11-21,10:30:00,530301-001,154,0,0,0,0,0,0,0,0,,31.8,0,0,,0,0,0,,60.3,0,0,13.75,9.22,678
DPTAW,2015-11-21,10:25:00,530301-001,155,0,0,0,0,0,0,0,0,,31.4,0,0,,0,0,0,,60.8,0,0,13.75,9.22,669
DPTAW,2015-11-21,10:20:00,530301-001,156,0,0,0,0,0,0,0,0,,31.18,0,0,,0,0,0,,59.6,0,0,13.75,9.2,658
DPTAW,2015-11-21,10:15:00,530301-001,157,0,0,0,0,0,0,0,0,,30.93,0,0,,0,0,0,,61.2,0,0,13.8,9.2,646
DPTAW,2015-11-21,10:10:00,530301-001,158,0,0,0,0,0,0,0,0,,30.87,0,0,,0,0,0,,61.5,0,0,13.8,9.12,636
DPTAW,2015-11-21,10:05:00,530301-001,159,0,0,0,0,0,0,0,0,,30.69,0,0,,0,0,0,,61.2,0,0,13.8,9.12,626
DPTAW,2015-11-21,10:00:00,530301-001,160,0,0,0,0,0,0,0,0,,30.55,0,0,,0,0,0,,61.4,0,0,13.8,9.17,616
DPTAW,2015-11-21,09:55:00,530301-001,161,0,0,0,0,0,0,0,0,,30.62,0,0,,0,0,0,,61.6,0,0,13.8,9.05,607
DPTAW,2015-11-21,09:50:00,530301-001,162,0,0,0,0,0,0,0,0,,30.6,0,0,,0,0,0,,62.9,0,0,13.75,9.1,594
DPTAW,2015-11-21,09:45:00,530301-001,163,0,0,0,0,0,0,0,0,,30.19,0,0,,0,0,0,,63.9,0,0,13.8,9,582
DPTAW,2015-11-21,09:40:00,530301-001,164,0,0,0,0,0,0,0,0,,30.15,0,0,,0,0,0,,63.9,0,0,13.67,9.05,570
DPTAW,2015-11-21,09:35:00,530301-001,165,0,0,0,0,0,0,0,0,,29.9,0,0,,0,0,0,,63.6,0,0,13.8,9,558
DPTAW,2015-11-21,09:30:00,530301-001,166,0,0,0,0,0,0,0,0,,29.84,0,0,,0,0,0,,64,0,0,13.78,9,543
DPTAW,2015-11-21,09:25:00,530301-001,167,0,0,0,0,0,0,0,0,,29.76,0,0,,0,0,0,,65.6,0,0,13.75,9,532
DPTAW,2015-11-21,09:20:00,530301-001,168,0,0,0,0,0,0,0,0,,29.67,0,0,,0,0,0,,67.9,0,0,13.75,8.98,519
DPTAW,2015-11-21,09:15:00,530301-001,169,0,0,0,0,0,0,0,0,,29.43,0,0,,0,0,0,,67.5,0,0,13.75,9,504
DPTAW,2015-11-21,09:10:00,530301-001,170,0,0,0,0,0,0,0,0,,29.32,0,0,,0,0,0,,68.2,0,0,13.8,8.98,490
DPTAW,2015-11-21,09:05:00,530301-001,171,0,0,0,0,0,0,0,0,,29.05,0,0,,0,0,0,,69.3,0,0,13.69,8.9,476
DPTAW,2015-11-21,09:00:00,530301-001,172,0,0,0,0,0,0,0,0,,28.85,0,0,,0,0,0,,70.2,0,0,13.75,8.9,461
DPTAW,2015-11-21,08:55:00,530301-001,173,0,0,0,0,0,0,0,0,,28.83,0,0,,0,0,0,,72.9,0,0,13.8,8.9,446
DPTAW,2015-11-21,08:50:00,530301-001,174,0,0,0,0,0,0,0,0,,28.49,0,0,,0,0,0,,75.6,0,0,13.69,9,429
DPTAW,2015-11-21,08:45:00,530301-001,175,0,0,0,0,0,0,0,0,,28.31,0,0,,0,0,0,,75.3,0,0,13.75,8.98,414
DPTAW,2015-11-21,08:40:00,530301-001,176,0,0,0,0,0,0,0,0,,28.02,0,0,,0,0,0,,75.1,0,0,13.69,9,398
DPTAW,2015-11-21,08:35:00,530301-001,177,0,0,0,0,0,0,0,0,,27.74,0,0,,0,0,0,,77.1,0,0,13.8,8.98,381
DPTAW,2015-11-21,08:30:00,530301-001,178,0,0,0,0,0,0,0,0,,27.44,0,0,,0,0,0,,78.6,0,0,13.75,8.98,365
DPTAW,2015-11-21,08:25:00,530301-001,179,0,0,0,0,0,0,0,0,,27.25,0,0,,0,0,0,,78.6,0,0,13.69,8.93,348
DPTAW,2015-11-21,08:20:00,530301-001,180,0,0,0,0,0,0,0,0,,27.12,0,0,,0,0,0,,79.3,0,0,13.8,8.9,330
DPTAW,2015-11-21,08:15:00,530301-001,181,0,0,0,0,0,0,0,0,,26.78,0,0,,0,0,0,,79.4,0,0,13.67,8.85,313
DPTAW,2015-11-21,08:10:00,530301-001,182,0,0,0,0,0,0,0,0,,26.27,0,0,,0,0,0,,80.9,0,0,13.8,8.83,296
DPTAW,2015-11-21,08:05:00,530301-001,183,0,0,0,0,0,0,0,0,,25.89,0,0,,0,0,0,,81.2,0,0,13.78,8.83,279
DPTAW,2015-11-21,08:00:00,530301-001,184,0,0,0,0,0,0,0,0,,25.49,0,0,,0,0,0,,81.3,0,0,13.8,8.83,261
DPTAW,2015-11-21,07:55:00,530301-001,185,0,0,0,0,0,0,0,0,,25.1,0,0,,0,0,0,,81.2,0,0,13.8,8.83,243
DPTAW,2015-11-21,07:50:00,530301-001,186,0,0,0,0,0,0,0,0,,24.7,0,0,,0,0,0,,80.9,0,0,13.75,8.78,228
DPTAW,2015-11-21,07:45:00,530301-001,187,0,0,0,0,0,0,0,0,,24.25,0,0,,0,0,0,,80.7,0,0,13.8,8.78,213
DPTAW,2015-11-21,07:40:00,530301-001,188,0,0,0,0,0,0,0,0,,23.86,0,0,,0,0,0,,80.1,0,0,13.69,8.73,190
DPTAW,2015-11-21,07:35:00,530301-001,189,0,0,0,0,0,0,0,0,,23.51,0,0,,0,0,0,,78.9,0,0,13.8,8.73,167
DPTAW,2015-11-21,07:30:00,530301-001,190,0,0,0,0,0,0,0,0,,23.24,0,0,,0,0,0,,78,0,0,13.8,8.65,150
DPTAW,2015-11-21,07:25:00,530301-001,191,0,0,0,0,0,0,0,0,,22.98,0,0,,0,0,0,,77.8,0,0,13.8,8.45,113
DPTAW,2015-11-21,07:20:00,530301-001,192,0,46,0,0,0,0,46,0,,22.79,0,0,,0,0,0,,77.9,0,0,8.27,8.26,73
DPTAW,2015-11-21,07:10:00,530301-001,193,0,47,0,0,0,0,47,0,,22.65,0,0,,0,0,0,,78.3,0,0,8.13,8.21,36
DPTAW,2015-11-20,16:25:00,530301-001,194,0,27,0,0,0,0,27,0,,33.67,0,0,,0,0,0,,48.3,0,0,8.41,8.5,39
DPTAW,2015-11-20,15:55:00,530301-001,195,0,352,0,0,0,0,352,0,,34.35,0,0,,0,0,0,,46.7,0,0,8.52,8.5,51
DPTAW,2015-11-20,15:45:00,530301-001,196,0,0,0,0,0,0,0,0,,34.55,0,0,,0,0,0,,46.6,0,0,8.52,8.5,72
DPTAW,2015-11-20,15:40:00,530301-001,197,0,0,0,0,0,0,0,0,,34.96,0,0,,0,0,0,,47.1,0,0,13.8,8.63,208
DPTAW,2015-11-20,15:35:00,530301-001,198,0,0,0,0,0,0,0,0,,35.11,0,0,,0,0,0,,44.6,0,0,13.8,8.78,373
DPTAW,2015-11-20,15:30:00,530301-001,199,0,0,0,0,0,0,0,0,,35.2,0,0,,0,0,0,,43.1,0,0,13.69,8.83,387
DPTAW,2015-11-20,15:25:00,530301-001,200,0,0,0,0,0,0,0,0,,35.24,0,0,,0,0,0,,43.1,0,0,13.8,8.83,406
DPTAW,2015-11-20,15:15:00,530301-001,201,0,0,0,0,0,0,0,0,,35.89,0,0,,0,0,0,,41.1,0,0,13.75,8.9,425
DPTAW,2015-11-20,15:10:00,530301-001,202,0,0,0,0,0,0,0,0,,36.02,0,0,,0,0,0,,41,0,0,13.75,8.85,442
DPTAW,2015-11-20,15:05:00,530301-001,203,0,0,0,0,0,0,0,0,,35.94,0,0,,0,0,0,,42.2,0,0,13.8,8.83,458
DPTAW,2015-11-20,15:00:00,530301-001,204,0,0,0,0,0,0,0,0,,35.91,0,0,,0,0,0,,43.9,0,0,13.67,8.9,474
DPTAW,2015-11-20,14:55:00,530301-001,205,0,0,0,0,0,0,0,0,,35.82,0,0,,0,0,0,,44.1,0,0,13.8,8.83,490
DPTAW,2015-11-20,14:50:00,530301-001,206,0,0,0,0,0,0,0,0,,35.84,0,0,,0,0,0,,40.5,0,0,13.8,8.83,507
DPTAW,2015-11-20,14:45:00,530301-001,207,0,0,0,0,0,0,0,0,,35.88,0,0,,0,0,0,,37.6,0,0,13.8,8.9,518
DPTAW,2015-11-20,14:40:00,530301-001,208,0,0,0,0,0,0,0,0,,35.7,0,0,,0,0,0,,41.2,0,0,13.83,8.9,531
DPTAW,2015-11-20,14:35:00,530301-001,209,0,0,0,0,0,0,0,0,,35.93,0,0,,0,0,0,,42,0,0,13.8,8.93,551
DPTAW,2015-11-20,14:30:00,530301-001,210,0,0,0,0,0,0,0,0,,35.83,0,0,,0,0,0,,41.1,0,0,13.8,8.83,571
DPTAW,2015-11-20,14:25:00,530301-001,211,0,0,0,0,0,0,0,0,,35.79,0,0,,0,0,0,,40.6,0,0,13.75,8.98,591
DPTAW,2015-11-20,14:20:00,530301-001,212,0,0,0,0,0,0,0,0,,35.91,0,0,,0,0,0,,40.1,0,0,13.8,8.9,601
DPTAW,2015-11-20,14:15:00,530301-001,213,0,0,0,0,0,0,0,0,,36.15,0,0,,0,0,0,,40.7,0,0,13.75,8.9,612
DPTAW,2015-11-20,14:10:00,530301-001,214,0,0,0,0,0,0,0,0,,36.48,0,0,,0,0,0,,43.1,0,0,13.75,8.98,620
DPTAW,2015-11-20,14:05:00,530301-001,215,0,0,0,0,0,0,0,0,,36.31,0,0,,0,0,0,,41.5,0,0,13.8,8.83,630
DPTAW,2015-11-20,14:00:00,530301-001,216,0,0,0,0,0,0,0,0,,36.19,0,0,,0,0,0,,40.2,0,0,13.75,8.9,643
DPTAW,2015-11-20,13:55:00,530301-001,217,0,0,0,0,0,0,0,0,,36,0,0,,0,0,0,,41.6,0,0,13.67,9,655
DPTAW,2015-11-20,13:50:00,530301-001,218,0,0,0,0,0,0,0,0,,35.54,0,0,,0,0,0,,42.3,0,0,13.8,8.98,661
DPTAW,2015-11-20,13:45:00,530301-001,219,0,0,0,0,0,0,0,0,,35.41,0,0,,0,0,0,,42.2,0,0,13.8,9,677
DPTAW,2015-11-20,13:40:00,530301-001,220,0,0,0,0,0,0,0,0,,35.64,0,0,,0,0,0,,42,0,0,13.8,9,692
DPTAW,2015-11-20,13:35:00,530301-001,221,0,0,0,0,0,0,0,0,,35.67,0,0,,0,0,0,,44,0,0,13.75,9,692
DPTAW,2015-11-20,13:30:00,530301-001,222,0,0,0,0,0,0,0,0,,35.35,0,0,,0,0,0,,44.9,0,0,13.8,9,691
DPTAW,2015-11-20,13:25:00,530301-001,223,0,0,0,0,0,0,0,0,,35.56,0,0,,0,0,0,,43.7,0,0,13.78,9.05,705
DPTAW,2015-11-20,13:20:00,530301-001,224,0,0,0,0,0,0,0,0,,35.68,0,0,,0,0,0,,43.5,0,0,13.75,8.98,712
DPTAW,2015-11-20,13:15:00,530301-001,225,0,0,0,0,0,0,0,0,,35.83,0,0,,0,0,0,,45.2,0,0,13.75,8.9,720
DPTAW,2015-11-20,13:10:00,530301-001,226,0,0,0,0,0,0,0,0,,35.66,0,0,,0,0,0,,39.2,0,0,13.67,8.98,735
DPTAW,2015-11-20,13:05:00,530301-001,227,0,0,0,0,0,0,0,0,,35.75,0,0,,0,0,0,,41.6,0,0,13.75,8.9,747
DPTAW,2015-11-20,13:00:00,530301-001,228,0,0,0,0,0,0,0,0,,35.63,0,0,,0,0,0,,42.6,0,0,13.75,8.9,765
DPTAW,2015-11-20,12:55:00,530301-001,229,0,0,0,0,0,0,0,0,,35.54,0,0,,0,0,0,,43.4,0,0,13.75,9,790
DPTAW,2015-11-20,12:50:00,530301-001,230,0,0,0,0,0,0,0,0,,35.43,0,0,,0,0,0,,44.3,0,0,13.67,9,834
DPTAW,2015-11-20,12:45:00,530301-001,231,0,0,0,0,0,0,0,0,,35.2,0,0,,0,0,0,,42.3,0,0,13.8,9.12,841
DPTAW,2015-11-20,12:40:00,530301-001,232,0,0,0,0,0,0,0,0,,34.97,0,0,,0,0,0,,45.5,0,0,13.78,9.02,813
DPTAW,2015-11-20,12:35:00,530301-001,233,0,0,0,0,0,0,0,0,,34.82,0,0,,0,0,0,,43.1,0,0,13.67,9.12,793
DPTAW,2015-11-20,12:30:00,530301-001,234,0,0,0,0,0,0,0,0,,35.02,0,0,,0,0,0,,45.1,0,0,13.8,9.12,786
DPTAW,2015-11-20,12:25:00,530301-001,235,0,0,0,0,0,0,0,0,,34.98,0,0,,0,0,0,,49.5,0,0,13.67,9.3,778
DPTAW,2015-11-20,12:20:00,530301-001,236,0,0,0,0,0,0,0,0,,35.16,0,0,,0,0,0,,50.3,0,0,13.78,9.05,789
DPTAW,2015-11-20,12:15:00,530301-001,237,0,0,0,0,0,0,0,0,,35.15,0,0,,0,0,0,,50.6,0,0,13.83,9.05,786
DPTAW,2015-11-20,12:10:00,530301-001,238,0,0,0,0,0,0,0,0,,34.74,0,0,,0,0,0,,52,0,0,13.8,9,782
DPTAW,2015-11-20,12:05:00,530301-001,239,0,0,0,0,0,0,0,0,,34.46,0,0,,0,0,0,,52.4,0,0,13.8,9.1,785
DPTAW,2015-11-20,12:00:00,530301-001,240,0,0,0,0,0,0,0,0,,34.48,0,0,,0,0,0,,52.9,0,0,13.8,9.05,780
DPTAW,2015-11-20,11:55:00,530301-001,241,0,0,0,0,0,0,0,0,,34.5,0,0,,0,0,0,,53.7,0,0,13.75,9,781
DPTAW,2015-11-20,11:50:00,530301-001,242,0,0,0,0,0,0,0,0,,34.32,0,0,,0,0,0,,55,0,0,13.75,9.05,782